Weather History for Rapid City, SD

Change the Weather History Date:

Sunday, June 24, 2012

  Actual Average Record
Temperature  
Mean Temperature 76 °F 67 °F  
Max Temperature 88 °F 81 °F 106 °F (1988)
Min Temperature 63 °F 54 °F 36 °F (1993)
Degree Days  
Heating Degree Days 0 2  
Month to date heating degree days 15 90  
Since 1 June heating degree days 15 90  
Since 1 July heating degree days 6141 7144  
Cooling Degree Days 11 4  
Month to date cooling degree days 100 53  
Year to date cooling degree days 127 68  
Since 1 June cooling degree days 100 53  
Growing Degree Days 26 (Base 50)    
Moisture  
Dew Point 65 °F    
Average Humidity 72    
Maximum Humidity 100    
Minimum Humidity 43    
Precipitation  
Precipitation 0.00 in 0.07 in 1.78 in (1968)
Month to date precipitation 2.04 2.18  
Year to date precipitation 7.98 8.87  
Snow  
Snow 0.00 in 0.00 in - ()
Month to date snowfall 0.0 0.0  
Since 1 June snowfall 0.0 0.0  
Since 1 July snowfall 24.7 41.1  
Snow Depth 0.00 in    
Sea Level Pressure  
Sea Level Pressure 29.91 in    
Wind  
Wind Speed 11 mph (SE)    
Max Wind Speed 22 mph    
Max Gust Speed 29 mph    
Visibility 10 miles    
Events      
T = Trace of Precipitation, MM = Missing Value Source: NWS Daily Summary

Daily Weather History Graph

Daily Weather History Graph

Search for Another Location

Airport:

Trip Planner

Search our weather history database for the weather conditions in past years. The results will help you decide how hot, cold, wet, or windy it might be!

Date:

Astronomy

Jun. 24, 2012 Rise Set
Actual Time 5:10 AM MDT 8:39 PM MDT
Civil Twilight 4:33 AM MDT 9:15 PM MDT
Nautical Twilight 3:45 AM MDT 10:03 PM MDT
Astronomical Twilight 2:44 AM MDT 11:04 PM MDT
Moon 10:29 AM MDT (6/24) 11:26 PM MDT (6/24)
Length of Visible Light 16h 41m
Length of Day
15h 29m
Waxing Crescent, 25% of the Moon is Illuminated
Jun 24
Waxing Crescent
Jun 26
First Quarter
Jul 3
Full
Jul 10
Last Quarter
Jul 18
New

Hourly Weather History & Observations

Time (MDT) Temp. Heat Index Dew Point Humidity Pressure Visibility Wind Dir Wind Speed Gust Speed Precip Events Conditions
12:52 AM 70.0 °F - 64.0 °F 81% 29.81 in 10.0 mi Calm Calm - N/A   Clear
1:52 AM 68.0 °F - 64.0 °F 87% 29.81 in 10.0 mi SSE 3.5 mph - N/A   Clear
2:52 AM 66.9 °F - 64.0 °F 90% 29.83 in 10.0 mi SSE 4.6 mph - N/A   Clear
3:52 AM 64.9 °F - 63.0 °F 93% 29.84 in 9.0 mi SSE 5.8 mph - N/A   Clear
4:52 AM 64.0 °F - 63.0 °F 96% 29.86 in 8.0 mi Calm Calm - N/A   Clear
5:52 AM 64.9 °F - 64.0 °F 97% 29.86 in 6.0 mi SSW 4.6 mph - N/A   Clear
6:52 AM 68.0 °F - 66.0 °F 93% 29.88 in 9.0 mi SE 3.5 mph - N/A   Clear
7:52 AM 72.0 °F - 66.0 °F 81% 29.90 in 10.0 mi SE 6.9 mph - N/A   Clear
8:52 AM 75.9 °F - 66.9 °F 74% 29.92 in 10.0 mi SE 10.4 mph - N/A   Clear
9:52 AM 77.0 °F - 66.0 °F 69% 29.92 in 10.0 mi SE 15.0 mph 18.4 mph N/A   Mostly Cloudy
10:52 AM 79.0 °F - 64.9 °F 62% 29.92 in 10.0 mi SE 13.8 mph 23.0 mph N/A   Clear
11:52 AM 80.6 °F 82.3 °F 64.4 °F 58% 30.01 in 10.0 mi ESE 18.4 mph 23.0 mph N/A   Partly Cloudy
12:52 PM 82.0 °F 83.8 °F 64.9 °F 56% 29.94 in 10.0 mi ESE 17.3 mph 24.2 mph N/A   Mostly Cloudy
1:52 PM 84.0 °F 85.8 °F 64.9 °F 53% 29.94 in 10.0 mi ESE 16.1 mph 23.0 mph N/A   Scattered Clouds
2:52 PM 86.0 °F 87.3 °F 64.0 °F 48% 29.94 in 10.0 mi SE 16.1 mph 25.3 mph N/A   Mostly Cloudy
3:52 PM 87.1 °F 87.8 °F 63.0 °F 44% 29.94 in 10.0 mi ESE 13.8 mph - N/A   Scattered Clouds
4:52 PM 86.0 °F 87.3 °F 64.0 °F 48% 29.94 in 10.0 mi SE 17.3 mph 23.0 mph N/A   Partly Cloudy
5:52 PM 84.0 °F 85.4 °F 64.0 °F 51% 29.93 in 10.0 mi SE 17.3 mph 28.8 mph N/A   Partly Cloudy
6:52 PM 81.0 °F 82.5 °F 64.0 °F 56% 29.94 in 10.0 mi SE 16.1 mph - N/A   Clear
7:52 PM 80.1 °F 81.9 °F 64.9 °F 60% 29.94 in 10.0 mi ESE 17.3 mph - N/A   Clear
8:52 PM 77.0 °F - 64.9 °F 66% 29.95 in 10.0 mi SE 11.5 mph - N/A   Clear
9:52 PM 73.9 °F - 64.9 °F 73% 29.94 in 10.0 mi SE 10.4 mph - N/A   Clear
10:52 PM 71.1 °F - 64.9 °F 81% 29.94 in 10.0 mi ESE 6.9 mph - N/A   Clear
11:52 PM 70.0 °F - 64.9 °F 84% 29.95 in 10.0 mi South 4.6 mph - N/A   Clear